FW4321 Weather Reports


time (UTC)temp
C
wind
direction
speed
KPH
gust
KPH
rain 1hr
cm
rain 24hr
cm
rain mn
cm
humidity
%
barometer
mb
20260507200034 17 66 3.2 17.7 0.00 0.79 0.33 36 1013.9
20260507194534 18 77 3.2 12.9 0.00 0.81 0.33 34 1014.1
20260507193030 18 76 4.8 25.7 0.00 0.81 0.33 35 1014.5
20260507191529 17 244 1.6 17.7 0.00 0.81 0.33 37 1014.5
20260507190026 18 221 6.4 17.7 0.00 0.81 0.33 35 1014.7
20260507184524 17 81 3.2 12.9 0.00 0.81 0.33 35 1014.9
20260507183023 18 325 8.0 14.5 0.00 0.81 0.33 35 1015.1
20260507181521 18 132 3.2 14.5 0.00 0.81 0.33 34 1015.3
20260507180022 17 18 3.2 17.7 0.00 0.81 0.33 36 1015.5
20260507174538 16 207 4.8 24.1 0.00 0.84 0.33 37 1015.8
20260507173021 16 252 9.7 22.5 0.00 0.84 0.33 36 1015.8
20260507171518 16 229 6.4 17.7 0.00 0.84 0.33 35 1016.2
20260507170014 16 240 8.0 17.7 0.00 0.84 0.33 37 1016.3
20260507164514 16 287 3.2 12.9 0.00 0.86 0.33 37 1016.4
20260507163018 16 218 1.6 14.5 0.00 0.86 0.33 38 1016.5
20260507161520 16 360 4.8 17.7 0.00 0.86 0.33 38 1016.8
20260507160012 16 360 3.2 14.5 0.00 0.86 0.33 37 1016.9
20260507154509 15 212 3.2 12.9 0.00 0.86 0.33 38 1017.0
20260507153005 15 55 3.2 16.1 0.00 0.86 0.33 42 1017.1
20260507151505 15 360 8.0 17.7 0.00 0.86 0.33 46 1017.4
20260507150001 15 279 0.0 16.1 0.00 0.86 0.33 48 1017.5
20260507144559 14 360 3.2 8.0 0.00 0.86 0.33 50 1017.5
20260507143114 13 360 3.2 14.5 0.00 0.86 0.33 55 1017.5
20260507141619 13 360 6.4 17.7 0.00 0.86 0.33 58 1017.5
20260507140111 13 316 4.8 14.5 0.00 0.86 0.33 62 1017.5
20260507134555 12 360 4.8 12.9 0.00 0.86 0.33 66 1017.6
20260507133056 12 360 3.2 12.9 0.00 0.86 0.33 69 1017.7
20260507131617 12 360 1.6 16.1 0.00 0.86 0.33 72 1017.7
20260507130048 11 360 3.2 9.7 0.00 0.86 0.33 76 1017.7
20260507124554 11 360 1.6 9.7 0.00 0.86 0.33 79 1017.8
20260507123047 11 360 3.2 14.5 0.00 0.86 0.33 79 1017.9
20260507121544 10 360 1.6 12.9 0.00 0.86 0.33 79 1017.7
20260507120044 10 360 1.6 14.5 0.00 0.86 0.33 80 1017.6
20260507114541 10 331 1.6 12.9 0.00 0.86 0.33 80 1017.5
20260507113102 10 277 0.0 12.9 0.00 0.86 0.33 81 1017.2
20260507111536 10 267 0.0 9.7 0.00 0.86 0.33 82 1017.1
20260507110037 10 300 0.0 12.9 0.00 0.86 0.33 83 1017.0
20260507104532 10 257 4.8 14.5 0.00 0.86 0.33 83 1016.9
20260507103027 10 245 4.8 9.7 0.00 0.86 0.33 84 1016.9
20260507101527 10 254 1.6 12.9 0.00 0.86 0.33 84 1016.6
20260507100037 10 11 1.6 8.0 0.00 0.86 0.33 85 1016.4
20260507094523 10 146 0.0 9.7 0.00 0.86 0.33 86 1016.3
20260507093027 10 261 3.2 12.9 0.03 0.86 0.33 86 1016.2
20260507091522 10 252 1.6 11.3 0.05 0.86 0.33 87 1016.3
20260507090022 10 257 3.2 12.9 0.05 0.86 0.33 87 1016.3
20260507084539 10 281 1.6 9.7 0.05 0.86 0.33 87 1016.4
20260507083024 10 194 3.2 14.5 0.03 0.84 0.30 87 1016.0
20260507081517 10 263 4.8 19.3 0.03 0.81 0.28 87 1016.0
20260507080015 10 287 3.2 14.5 0.05 0.81 0.28 87 1016.1
20260507074513 10 175 6.4 11.3 0.08 0.81 0.28 88 1016.6
20260507073013 11 271 4.8 16.1 0.10 0.81 0.28 87 1016.2
20260507071515 11 272 3.2 11.3 0.15 0.79 0.25 86 1016.0
20260507070016 11 269 4.8 12.9 0.15 0.76 0.23 86 1016.1
20260507064505 11 315 6.4 14.5 0.20 0.71 0.20 86 1016.1
20260507063001 11 214 6.4 12.9 0.18 0.71 0.18 86 1016.2
20260507061559 11 185 3.2 11.3 0.10 0.64 0.10 85 1015.6
20260507061502 11 239 1.6 9.7 0.10 0.64 0.10 85 1015.6
20260507060058 12 250 3.2 11.3 0.08 0.61 0.08 83 1015.7
20260507054553 12 360 3.2 14.5 0.00 0.53 0.00 80 1015.7
20260507053051 13 360 3.2 12.9 0.00 0.53 0.00 79 1015.2
20260507051548 13 360 3.2 14.5 0.00 0.53 0.00 77 1015.0
20260507050103 13 360 4.8 9.7 0.00 0.53 0.00 77 1015.5
20260507044552 13 360 0.0 9.7 0.00 0.53 0.00 78 1015.2
20260507043044 13 360 3.2 8.0 0.00 0.53 0.00 78 1015.4
20260507041544 13 360 3.2 9.7 0.00 0.53 0.00 79 1015.6
20260507040039 13 360 1.6 9.7 0.00 0.53 0.00 80 1015.7
20260507034541 14 360 3.2 9.7 0.00 0.53 0.53 80 1015.5
20260507033042 14 360 4.8 14.5 0.00 0.53 0.53 80 1015.4
20260507031536 14 360 1.6 9.7 0.00 0.53 0.53 81 1015.2
20260507030037 15 360 3.2 14.5 0.03 0.53 0.53 82 1015.3
20260507024540 15 360 3.2 12.9 0.10 0.53 0.53 88 1015.5
20260507023027 16 360 4.8 16.1 0.38 0.53 0.53 88 1015.2
20260507021543 17 360 6.4 19.3 0.43 0.53 0.53 88 1015.4
20260507020026 17 360 4.8 16.1 0.41 0.51 0.51 87 1014.5
20260507014524 18 360 0.0 6.4 0.30 0.41 0.41 86 1014.5
20260507013021 18 360 3.2 6.4 0.05 0.15 0.15 83 1014.6
20260507011529 19 216 0.0 4.8 0.00 0.10 0.10 79 1014.2
20260507010032 19 263 0.0 6.4 0.00 0.10 0.10 78 1014.0
20260507004521 19 213 1.6 9.7 0.00 0.10 0.10 79 1014.0
20260507003019 19 271 1.6 9.7 0.00 0.10 0.10 79 1013.7
20260507001519 19 215 0.0 4.8 0.00 0.10 0.10 79 1014.0
20260507000018 19 108 1.6 6.4 0.00 0.10 0.10 79 1013.9
20260506234518 19 148 0.0 9.7 0.00 0.10 0.10 79 1013.7
20260506233017 19 165 1.6 9.7 0.00 0.10 0.10 79 1013.5
20260506231522 19 175 1.6 12.9 0.03 0.10 0.10 79 1013.7
20260506230016 19 305 1.6 16.1 0.03 0.10 0.10 79 1013.6
20260506224516 19 165 4.8 17.7 0.03 0.10 0.10 79 1013.5
20260506223017 19 360 1.6 9.7 0.03 0.10 0.10 80 1013.4
20260506221514 18 227 0.0 9.7 0.00 0.08 0.08 80 1013.4
20260506220022 18 259 3.2 11.3 0.00 0.08 0.08 80 1013.4
20260506214514 18 215 1.6 12.9 0.00 0.08 0.08 81 1013.3
20260506213013 18 214 3.2 8.0 0.00 0.08 0.08 82 1013.1
20260506211512 18 360 0.0 12.9 0.00 0.08 0.08 83 1013.1
20260506210012 18 360 1.6 9.7 0.00 0.08 0.08 85 1013.0
20260506204512 17 360 3.2 6.4 0.00 0.08 0.08 86 1012.9
20260506203022 17 360 0.0 8.0 0.00 0.08 0.08 87 1013.1
20260506201510 17 360 0.0 3.2 0.00 0.08 0.08 88 1013.1